This is the latest recevied weather packets stored in our database for station/object NT9G. If no packets are shown the sender has not sent any weather packets the latest 10 day(s).
| Time | Temp. | Humidity | Pressure | Rain* | Wind** | Luminosity | Snow |
|---|---|---|---|---|---|---|---|
| 1777405856 | 16.67° C | 54% | 1014.8 hPa | 0.51 mm | - | - | - |
| 1777405556 | 16.67° C | 57% | 1015.1 hPa | 0.51 mm | - | - | - |
| 1777405256 | 16.11° C | 55% | 1015 hPa | 0.51 mm | - | - | - |
| 1777404955 | 16.11° C | 56% | 1015 hPa | 0.51 mm | - | - | - |
| 1777404655 | 15.56° C | 54% | 1015.1 hPa | 0.51 mm | - | - | - |
| 1777404356 | 15.56° C | 57% | 1015.2 hPa | 0.51 mm | - | - | - |
| 1777404054 | 15.56° C | 53% | 1015.5 hPa | 0.25 mm | - | - | - |
| 1777403754 | 16.11° C | 56% | 1015.5 hPa | 0.25 mm | - | - | - |
| 1777403454 | 15.56° C | 56% | 1015.5 hPa | 0.25 mm | - | - | - |
| 1777403154 | 15.56° C | 57% | 1015.7 hPa | 0.25 mm | - | - | - |
| 1777402853 | 15° C | 58% | 1015.7 hPa | 0.25 mm | - | - | - |
| 1777402555 | 15.56° C | 57% | 1015.9 hPa | 0.25 mm | - | - | - |
| 1777402253 | 15.56° C | 58% | 1016 hPa | 0.25 mm | - | - | - |
| 1777401953 | 15.56° C | 63% | 1016.2 hPa | 0.25 mm | - | - | - |
| 1777401652 | 15.56° C | 61% | 1016.4 hPa | 0.25 mm | - | - | - |
| 1777401352 | 15° C | 61% | 1016.5 hPa | 0.25 mm | - | - | - |
| 1777401052 | 15.56° C | 61% | 1016.5 hPa | 0.25 mm | - | - | - |
| 1777400751 | 15.56° C | 59% | 1016.6 hPa | 0.25 mm | - | - | - |
| 1777400451 | 15° C | 61% | 1016.7 hPa | 0.25 mm | - | - | - |
| 1777400151 | 14.44° C | 63% | 1016.7 hPa | 0.25 mm | - | - | - |
| 1777399851 | 13.89° C | 66% | 1016.9 hPa | 0.25 mm | - | - | - |
| 1777399550 | 13.89° C | 65% | 1017.1 hPa | 0.25 mm | - | - | - |
| 1777398950 | 13.89° C | 64% | 1017.2 hPa | 0.25 mm | - | - | - |
| 1777398649 | 14.44° C | 61% | 1017.3 hPa | 0.25 mm | - | - | - |
| 1777398349 | 14.44° C | 60% | 1017.3 hPa | 0.25 mm | - | - | - |
* Rain since midnight (hover to see other rain measurements)
** Current wind speed in m/s (hover to see current wind gust speed)